CAPE
0 0 2 86 181 79 43 42 37 12 41 256 439 473 672 1277 1135 780 548 502 501 505 387 452 631 812 857 1001 1180 1292 1290 1402 1684 1714 1486 1513 1323 1284 1295 1662 2162 1898 1395 1835
0 0 0 17 16 6 16 35 60 15 113 290 242 284 479 1013 1416 1161 876 771 771 698 797 924 965 1103 1179 1284 1326 1483 1544 1838 1955 1592 1962 1508 1469 1452 1555 1741 1291 1504 1516 1904
0 0 0 0 0 4 34 44 44 16 0 211 458 92 846 809 1238 1328 1175 963 952 928 942 1164 1317 1359 1380 1610 1746 1753 1989 1997 2087 1841 1921 2043 2065 1521 1236 1253 870 1024 1765 1724
0 0 0 0 0 5 61 52 0 0 0 128 101 115 110 1079 1222 1377 1350 1237 1038 1072 1105 1150 1359 1432 1499 1742 2070 2035 2241 2357 2329 2279 1954 1855 1857 1613 1078 1247 1671 1854 2070 2266
0 0 0 0 0 0 5 0 0 0 0 46 102 204 181 679 740 1073 1360 1323 1243 1170 1175 1200 1244 1316 1321 1571 1983 2145 2426 2583 2367 2397 2711 2287 2034 1539 1438 1129 1800 1880 1814 2056
0 0 0 0 0 0 0 0 0 0 3 100 118 161 167 224 130 354 477 1051 1213 1173 1266 1301 1350 1209 1317 1367 1754 1977 2461 2684 2524 2468 2478 2521 2290 1945 1464 1214 1432 1313 1099 1000
0 0 0 0 0 0 0 0 0 0 23 125 127 130 116 93 22 37 256 250 900 1160 1199 1312 1295 1359 1490 1423 1577 1836 2426 2680 2601 2405 2399 2447 2592 2507 2075 1694 1166 1144 1102 1078
0 0 0 0 0 0 0 0 0 0 7 73 160 91 138 48 4 10 312 345 434 836 1170 1255 1352 1465 1758 1622 1665 1813 2381 2610 2393 2330 2436 2510 2620 2300 1952 2005 1453 1404 1227 1022
0 0 0 0 0 0 0 0 0 0 0 0 15 16 0 0 0 0 118 255 616 610 938 1230 1342 1420 1738 1794 1856 1961 2519 2716 2520 2317 2524 2463 2482 2024 1597 1647 1807 1457 1085 527
0 0 0 0 0 0 0 0 0 0 0 0 0 1 7 13 0 0 0 118 753 850 842 1035 1312 1539 1726 1827 1932 2085 2489 2603 2482 2094 2249 2186 2178 2038 1968 1994 1797 1144 571 137
0 0 0 0 0 0 0 0 0 0 0 0 1 4 5 0 0 0 0 64 611 1085 960 1051 1299 1498 1839 1896 1951 2073 2399 2372 2398 2159 2133 2111 2132 2206 1927 1231 950 672 198 21
0 0 0 0 0 0 0 0 0 0 0 0 0 0 0 0 0 0 0 4 260 1106 1093 1080 1220 1525 1953 1952 2073 2084 2221 2270 2341 2333 2416 2330 2166 1496 1056 734 660 216 26 1
0 0 0 3 0 0 0 0 0 0 0 0 0 0 0 0 0 0 0 209 718 1285 1298 1333 1386 1690 1984 1927 2134 2078 2197 2389 2306 2520 2364 2046 1421 1139 858 296 61 1 0 0
0 0 0 17 120 20 0 0 0 0 0 0 0 0 0 0 0 0 424 181 570 1335 1384 1584 1631 1861 2044 1962 2096 2229 2256 2359 2320 2173 1983 1582 1088 594 357 93 18 0 0 0
0 0 7 0 0 0 0 0 0 0 0 0 0 0 0 0 111 629 804 804 257 807 1262 1606 1735 1993 2171 2084 2233 2276 2165 2145 2106 2003 1651 1314 735 365 177 107 0 0 0 0
0 0 0 34 0 0 0 41 11 0 0 0 0 0 0 0 400 803 1027 1221 819 599 1044 1435 1670 1879 2088 2167 2292 2155 2166 2085 2021 1861 1426 976 491 214 109 0 0 0 0 0
0 0 0 0 0 4 2 1 90 34 0 0 0 10 431 479 831 1262 1358 1187 907 868 1014 1374 1720 1779 1913 2137 2279 2203 2503 1989 1887 1541 1347 834 385 144 11 0 0 0 0 0
0 0 0 5 0 2 6 342 375 233 303 605 498 453 925 1146 1215 1323 1302 1723 1753 1281 986 1424 1671 1836 1893 2039 2217 2258 2168 1905 1892 1562 1046 640 155 21 6 0 0 0 0 0
0 0 0 2 1 0 1 28 525 801 535 947 902 871 1045 1257 1221 1493 1563 2170 2049 1695 1425 1488 1706 2059 2144 2202 2237 2289 1912 1729 1601 986 645 298 105 8 4 0 0 0 0 0
0 0 4 0 8 1 9 469 615 876 794 1011 988 973 974 1415 809 1719 2152 2435 2354 1889 1645 1508 1871 2181 2347 2256 1876 1639 1700 1612 1477 664 353 230 16 8 5 0 0 0 0 0
0 4 15 23 49 69 71 414 532 795 875 991 784 765 754 933 869 816 2274 2625 2566 2399 2139 2031 2175 2435 2382 1785 1600 1639 1502 1313 459 555 133 16 12 9 3 0 0 0 0 0
0 0 5 112 107 128 415 474 454 968 942 812 808 746 660 666 671 726 2026 2580 2444 2565 2577 2511 2319 1817 1365 1353 1594 1466 1195 265 497 225 14 0 0 0 2 0 0 0 0 0
0 0 0 131 197 649 570 597 678 744 797 820 354 654 706 747 729 594 1770 2382 1716 1637 1843 1655 1592 1320 968 1127 1737 166 146 456 69 48 6 4 2 0 1 1 2 0 0 0
0 0 89 0 1 0 125 385 544 705 704 465 0 440 159 551 709 784 1291 2546 1758 1515 1548 1409 1018 790 886 870 201 492 575 418 148 22 10 10 7 2 2 0 0 0 0 0
0 0 0 0 1 5 78 201 30 112 0 0 0 78 121 0 272 1144 1478 2556 1826 1522 1166 1012 947 900 531 246 401 736 369 387 58 11 12 12 2 0 0 0 0 0 0 0
0 0 0 0 0 0 0 13 0 0 0 0 0 0 0 0 3 972 1617 2282 2346 1848 1380 1070 887 654 352 281 521 418 438 122 22 11 6 4 2 0 0 0 0 0 0 0
CIN
-0 -0 -99 -61 -25 -55 -115 -150 -161 -221 -181 -58 -20 -15 -29 -61 -70 -69 -61 -65 -49 -27 -27 -25 -10 -9 -1 -2 -0 -6 -9 -8 -8 -2 -0 -0 -0 -0 -0 -0 -0 -2 -0 -0
-0 -0 -0 -115 -109 -171 -153 -147 -112 -199 -122 -58 -26 -22 -27 -53 -76 -67 -57 -55 -36 -13 -3 -13 -5 -3 -4 -6 -12 -11 -17 -21 -21 -7 -15 -0 -0 -0 -0 -1 -39 -15 -0 -0
-0 -0 -0 -0 -0 -143 -108 -113 -134 -199 -0 -52 -29 -17 -18 -47 -79 -80 -66 -58 -41 -32 -15 -14 -11 -5 -6 -8 -14 -14 -21 -23 -25 -3 -22 -24 -0 -33 -41 -29 -62 -48 -4 -6
-0 -0 -0 -0 -0 -162 -64 -105 -0 -0 -0 -26 -65 -6 -22 -23 -61 -85 -78 -65 -53 -34 -25 -18 -16 -11 -9 -11 -20 -23 -26 -26 -23 -20 -16 -8 -0 -2 -23 -17 -5 -9 -3 -0
-0 -0 -0 -0 -0 -0 -124 -0 -0 -0 -0 -95 -44 -3 -4 -15 -15 -35 -57 -70 -62 -51 -38 -19 -22 -11 -6 -8 -22 -20 -36 -26 -15 -32 -2 -5 -0 -0 -1 -2 -0 -0 -6 -0
-0 -0 -0 -0 -0 -0 -0 -0 -0 -0 -157 -58 -25 -4 -0 -0 -12 -13 -32 -57 -75 -56 -51 -31 -17 -17 -11 -11 -19 -29 -54 -41 -32 -29 -22 -11 -0 -0 -0 -1 -0 -0 -11 -19
-0 -0 -0 -0 -0 -0 -0 -0 -0 -0 -78 -41 -6 -19 -1 -12 -57 -12 -17 -35 -67 -75 -61 -56 -35 -30 -20 -29 -41 -33 -59 -66 -50 -41 -23 -13 -0 -0 -0 -1 -0 -0 -0 -0
-0 -0 -0 -0 -0 -0 -0 -0 -0 -0 -8 -24 -18 -50 -33 -43 -62 -21 -45 -79 -82 -110 -63 -83 -73 -43 -33 -37 -62 -62 -75 -69 -74 -56 -29 -14 -1 -0 -0 -0 -0 -0 -0 -0
-0 -0 -0 -0 -0 -0 -0 -0 -0 -0 -0 -0 -40 -91 -0 -0 -0 -0 -16 -47 -73 -102 -89 -68 -72 -60 -49 -62 -79 -92 -104 -79 -76 -64 -28 -18 -10 -4 -1 -0 -0 -0 -0 -30
-0 -0 -0 -0 -0 -0 -0 -0 -0 -0 -0 -0 -0 -25 -129 -82 -0 -0 -0 -34 -54 -99 -113 -88 -63 -67 -70 -81 -93 -107 -116 -108 -92 -67 -51 -36 -23 -14 -1 -2 -0 -1 -22 -96
-0 -0 -0 -0 -0 -0 -0 -0 -0 -0 -0 -0 -0 -42 -0 -0 -14 -0 -0 -74 -42 -75 -99 -99 -79 -73 -87 -94 -112 -106 -118 -99 -82 -59 -45 -32 -12 -1 -5 -26 -22 -30 -73 -80
-0 -0 -0 -0 -0 -0 -0 -0 -0 -0 -0 -0 -0 -0 -0 -0 -0 -0 -0 -51 -73 -82 -94 -111 -137 -118 -122 -130 -152 -140 -136 -106 -70 -55 -35 -18 -18 -47 -52 -90 -58 -180 -308 -0
-0 -0 -0 -0 -0 -0 -0 -0 -0 -0 -0 -0 -0 -0 -0 -0 -0 -0 -0 -67 -109 -121 -131 -155 -160 -145 -171 -167 -195 -176 -167 -131 -86 -51 -34 -47 -118 -131 -127 -242 -300 -0 -0 -0
-0 -0 -0 -0 -5 -12 -0 -0 -0 -0 -0 -0 -0 -0 -0 -0 -0 -0 -42 -96 -98 -139 -145 -128 -171 -183 -198 -210 -239 -229 -199 -145 -128 -120 -127 -164 -220 -309 -340 -401 -409 -0 -0 -0
-0 -0 -55 -0 -0 -0 -0 -0 -0 -0 -0 -0 -0 -0 -0 -0 -57 -67 -118 -121 -155 -127 -112 -149 -154 -185 -243 -266 -272 -256 -218 -222 -218 -181 -175 -199 -243 -278 -372 -432 -0 -0 -0 -0
-0 -0 -0 -61 -1 -0 -0 -8 -9 -0 -0 -0 -0 -0 -0 -0 -66 -84 -105 -130 -154 -134 -139 -155 -199 -212 -274 -281 -316 -307 -253 -245 -205 -180 -217 -280 -350 -381 -392 -0 -0 -0 -0 -0
-0 -0 -0 -0 -0 -0 -23 -1 -1 -15 -0 -0 -0 -1 -16 -39 -55 -90 -125 -173 -219 -242 -144 -169 -201 -219 -259 -240 -317 -310 -218 -250 -215 -260 -234 -289 -374 -379 -0 -0 -0 -0 -0 -0
-0 -0 -0 -79 -0 -23 -28 -5 -12 -11 -7 -17 -24 -23 -46 -58 -66 -81 -190 -188 -226 -299 -265 -205 -212 -208 -245 -215 -238 -225 -224 -217 -148 -187 -273 -339 -441 -408 -0 -0 -0 -0 -0 -0
-0 -0 -0 -38 -41 -0 -0 -2 -3 -2 -0 -20 -35 -51 -56 -64 -29 -113 -124 -161 -222 -267 -301 -242 -237 -214 -249 -215 -227 -201 -214 -190 -177 -278 -323 -362 -365 -0 -0 -0 -0 -0 -0 -0
-0 -0 -13 -0 -1 -0 -24 -21 -39 -33 -0 -17 -75 -79 -100 -72 -4 -19 -99 -144 -169 -203 -238 -256 -236 -240 -230 -226 -292 -284 -228 -221 -186 -322 -347 -245 -328 -0 -0 -0 -0 -0 -0 -0
-0 -19 -52 -12 -12 -12 -2 -32 -30 -2 -13 -82 -111 -116 -138 -129 -162 -167 -67 -115 -159 -177 -200 -234 -233 -190 -218 -325 -319 -280 -274 -267 -525 -366 -487 -347 -0 -0 -0 -0 -0 -0 -0 -0
-0 -0 -6 -4 -0 -0 -22 -20 -1 -29 -74 -104 -119 -126 -122 -149 -174 -180 -85 -71 -151 -155 -155 -172 -213 -307 -423 -390 -283 -280 -325 -730 -460 -486 -484 -0 -0 -0 -0 -0 -0 -0 -0 -0
-0 -0 -0 -0 -0 -17 -18 -19 -35 -41 -62 -74 -202 -141 -107 -110 -133 -188 -102 -53 -208 -273 -230 -269 -316 -398 -483 -398 -233 -821 -791 -484 -716 -687 -0 -0 -0 -0 -0 -0 -0 -0 -0 -0
-0 -0 -45 -0 -34 -0 -1 -20 -32 -29 -35 -103 -0 -150 -121 -102 -125 -117 -109 -9 -150 -229 -249 -284 -392 -492 -441 -420 -709 -487 -397 -413 -512 -621 -0 -0 -0 -0 -0 -0 -0 -0 -0 -0
-0 -0 -0 -0 -15 -19 -3 -10 -31 -84 -0 -0 -0 -103 -208 -0 -115 -82 -83 -4 -134 -198 -284 -339 -360 -364 -505 -652 -498 -276 -418 -366 -549 -287 -0 -0 -0 -0 -0 -0 -0 -0 -0 -0
-0 -0 -0 -0 -0 -0 -0 -2 -0 -0 -0 -0 -0 -0 -0 -0 -32 -82 -87 -19 -45 -125 -196 -274 -330 -401 -525 -521 -341 -363 -312 -447 -533 -0 -0 -0 -0 -0 -0 -0 -0 -0 -0 -0
Wind_Speed
12 12 14 13 10 5 4 7 7 6 4 6 8 10 8 16 17 17 17 17 18 18 18 17 16 15 14 13 13 13 12 10 9 8 7 6 5 5 4 3 4 4 4 5
9 17 17 6 4 10 11 11 10 8 2 5 10 11 9 15 19 19 19 18 18 18 19 18 18 17 16 16 15 14 13 13 11 8 4 4 5 6 6 4 2 5 6 4
19 16 8 7 12 14 15 13 10 11 9 10 10 12 7 10 15 18 18 19 19 18 18 19 18 18 17 16 16 15 15 14 13 10 8 3 5 3 2 2 3 5 7 6
12 6 7 13 16 14 18 8 7 8 10 10 5 10 8 11 14 17 18 20 20 20 18 18 19 19 18 17 16 16 16 15 13 14 11 10 8 7 5 5 5 3 4 6
6 9 13 15 14 12 16 2 6 9 12 13 13 8 1 9 9 14 18 21 22 21 20 19 19 19 18 16 16 16 16 15 14 15 12 10 9 6 7 6 8 6 4 4
1 1 5 8 7 12 10 7 10 12 12 14 17 8 11 3 2 5 4 17 20 23 22 20 19 18 17 16 16 15 16 16 16 15 15 13 11 8 7 8 8 7 6 5
13 13 11 9 12 8 11 16 15 17 15 13 15 8 12 13 12 8 3 7 18 21 23 21 20 18 16 18 18 16 17 16 17 17 15 14 12 11 9 8 8 6 6 5
8 13 16 14 17 14 14 17 15 21 16 14 7 9 13 10 10 11 2 4 7 17 20 22 21 20 19 19 19 19 18 16 17 16 16 13 12 9 8 9 5 7 5 5
5 11 1 6 11 12 17 12 17 23 22 11 14 9 7 16 16 12 2 4 8 14 19 23 23 21 19 18 20 20 19 17 16 16 14 14 12 10 8 6 6 5 4 6
3 11 10 9 6 10 14 8 10 12 19 22 17 17 9 11 8 8 3 5 7 12 16 20 20 19 18 19 18 19 19 19 18 16 15 14 14 12 9 8 7 7 6 6
8 6 2 4 12 14 11 14 13 15 12 15 16 14 14 9 13 10 7 1 5 12 14 17 17 17 17 17 18 18 18 18 17 15 14 14 13 11 9 9 9 9 9 7
5 9 9 13 6 5 12 15 18 12 16 11 15 14 8 7 8 9 5 3 6 10 11 14 16 17 17 17 17 18 17 17 17 15 14 14 12 12 12 12 12 11 11 9
8 6 9 11 9 8 10 13 15 17 17 18 16 10 14 13 9 10 8 4 6 12 13 13 16 17 16 16 16 17 18 18 17 16 16 16 16 15 13 13 11 11 10 9
4 13 11 13 13 9 11 12 12 16 15 16 18 19 14 18 18 6 9 7 7 12 15 15 16 15 15 16 17 18 19 19 19 19 19 18 17 17 17 14 12 12 11 10
7 12 14 13 13 13 14 14 14 16 17 20 18 18 11 13 10 12 12 10 10 11 16 17 18 18 17 18 18 19 20 20 20 18 17 17 14 13 13 15 14 12 11 10
11 12 11 13 18 15 18 19 18 15 15 18 17 19 15 4 10 10 11 11 9 10 13 16 17 18 20 20 20 20 20 19 18 17 17 16 16 15 14 16 14 13 12 11
15 12 12 15 15 13 18 21 21 12 11 12 14 9 10 9 9 11 12 11 10 9 11 15 17 18 19 22 21 21 19 19 18 18 18 17 16 14 13 13 13 13 13 12
15 13 10 12 14 18 18 3 7 10 9 7 11 8 10 11 9 7 4 11 12 9 10 11 14 15 17 17 18 18 19 18 17 17 17 17 16 15 14 14 12 11 11 11
15 13 11 12 13 15 18 7 7 8 12 3 7 6 10 13 13 9 7 13 12 10 9 9 13 14 15 16 17 16 18 18 17 16 17 16 16 15 15 15 14 12 11 11
6 11 10 11 11 15 10 7 5 6 13 7 3 6 11 17 12 12 17 15 13 9 6 7 11 12 14 14 15 18 18 15 14 14 14 14 12 11 11 12 14 12 11 10
9 9 13 12 12 12 6 3 1 12 2 8 8 9 10 9 10 16 16 14 12 8 1 3 7 10 12 13 18 16 16 15 16 17 15 14 14 9 10 9 10 12 12 11
10 9 11 11 15 19 6 3 10 8 3 6 10 10 11 11 12 14 14 13 13 10 5 3 7 6 9 14 14 15 15 18 20 18 17 18 24 15 12 12 10 11 10 11
9 9 10 9 4 5 4 7 6 7 6 5 10 13 12 13 12 13 12 7 8 5 3 3 7 9 10 10 10 15 16 20 20 18 17 14 12 12 13 15 13 11 11 10
16 12 10 14 11 15 11 7 7 5 6 7 9 10 13 12 14 12 11 8 5 3 2 5 8 10 10 8 14 16 18 17 18 17 16 16 15 13 13 12 12 10 11 11
10 3 11 15 16 18 13 14 8 5 8 10 11 11 11 12 14 12 10 6 3 1 2 4 7 9 10 11 12 15 13 14 14 14 14 13 12 13 12 11 11 10 10 10
12 17 14 15 16 17 17 12 7 14 14 13 11 11 13 12 13 13 8 8 3 3 5 6 7 8 9 10 12 11 12 14 13 13 12 12 12 11 11 10 9 7 7 5
Wind_Direction
201 221 225 216 232 332 294 284 303 354 53 288 263 268 234 188 204 192 194 196 195 193 183 182 191 190 192 195 193 192 197 192 189 189 196 186 194 184 190 186 194 204 209 193
202 232 240 275 277 250 255 275 276 299 62 261 297 285 258 189 206 206 199 197 202 196 183 187 189 193 193 193 195 191 197 187 197 182 207 181 186 170 177 177 225 231 212 207
236 231 279 220 226 248 246 261 294 301 319 243 290 274 152 193 202 212 212 206 203 204 192 187 195 197 195 197 195 196 194 190 194 182 165 145 140 112 108 143 188 233 220 208
243 241 254 234 243 237 263 259 256 273 275 293 343 309 276 145 201 209 217 213 207 203 207 187 191 197 199 193 197 195 194 191 187 183 181 180 191 177 185 183 164 178 200 217
195 218 230 247 245 243 262 40 265 288 277 277 262 260 21 172 199 209 212 216 213 203 204 198 192 195 198 186 189 192 189 188 186 184 195 181 202 181 177 173 166 165 164 165
209 100 255 255 243 251 262 218 235 246 266 267 259 263 280 95 306 124 202 204 214 208 201 207 193 188 188 185 181 183 183 186 183 186 193 193 185 190 181 186 178 175 150 178
206 219 229 247 237 195 224 241 250 242 231 245 253 239 262 311 308 305 303 250 197 208 198 199 198 184 184 183 183 179 179 182 181 185 188 188 186 188 191 186 203 180 180 183
258 226 206 206 235 249 212 242 249 247 250 257 157 237 256 263 314 298 291 257 196 202 201 196 200 189 183 184 183 180 178 180 181 184 186 186 182 189 198 199 194 207 186 167
273 235 211 235 249 251 240 238 259 271 268 259 274 217 251 267 266 277 27 271 200 192 200 194 194 195 181 184 185 182 177 179 181 183 184 185 183 194 198 185 197 172 154 128
312 270 253 237 205 222 258 321 213 228 250 256 239 253 265 280 256 289 274 236 182 190 195 193 192 190 185 186 185 182 180 179 179 181 183 181 179 179 171 167 184 157 139 137
315 253 236 213 212 229 185 237 239 282 264 258 255 247 230 226 255 291 336 346 204 189 192 191 187 188 184 185 182 181 180 177 177 179 177 175 177 165 165 154 154 149 144 143
23 303 275 283 85 328 290 267 242 241 241 244 273 274 151 211 287 300 289 246 229 200 190 190 186 180 179 183 177 180 179 175 176 170 170 167 158 161 166 155 153 150 144 144
348 260 288 248 172 193 242 247 251 266 259 257 273 263 243 257 261 287 300 264 211 195 184 187 184 182 181 181 175 176 178 177 170 165 167 162 165 164 157 151 150 141 142 139
264 269 274 292 340 332 292 265 255 260 256 257 249 263 260 279 263 285 308 289 241 204 185 183 182 180 178 182 176 176 177 173 165 170 171 169 166 161 154 151 151 147 143 142
276 286 285 269 277 280 271 277 269 262 261 263 278 276 293 254 333 314 305 291 265 222 200 189 185 178 180 178 178 179 179 175 170 170 164 168 151 153 152 145 148 146 146 144
291 276 268 272 273 263 264 268 268 267 264 266 262 272 270 294 295 292 305 311 291 252 223 202 195 181 183 181 180 179 176 176 168 161 166 155 154 156 163 146 146 150 145 148
284 275 269 267 271 272 260 255 258 262 269 278 260 290 351 290 303 312 314 321 312 286 242 209 199 190 190 186 181 180 172 170 167 165 159 157 150 157 162 151 153 152 151 153
253 264 266 273 274 257 266 38 298 275 273 256 271 291 310 304 305 305 43 348 333 323 278 214 206 197 196 187 180 175 171 172 169 163 158 153 153 160 159 155 157 160 153 159
229 248 255 259 251 256 274 245 257 263 268 207 285 302 323 318 283 150 335 343 327 308 284 227 208 196 188 177 168 170 172 172 164 161 154 154 161 163 163 161 161 162 160 161
236 225 248 243 261 268 256 21 357 302 258 127 328 357 352 332 290 47 351 347 335 321 281 222 195 185 177 168 157 173 172 158 153 140 149 153 151 163 173 167 158 155 164 163
200 224 233 236 251 265 286 337 292 243 39 348 355 350 350 353 343 320 344 343 342 342 338 167 177 168 164 161 174 169 157 154 137 146 142 137 132 167 172 173 170 164 168 158
256 252 240 231 263 261 64 224 254 8 336 6 339 343 330 330 329 337 338 349 346 357 29 101 110 133 152 173 173 167 153 139 145 143 147 156 149 173 167 178 183 175 173 167
250 248 291 295 276 41 340 303 316 301 323 356 360 331 326 328 339 336 327 353 333 344 31 131 146 139 155 181 175 132 144 150 153 156 167 169 148 147 156 161 180 177 178 181
255 256 258 274 256 274 299 266 264 275 308 347 328 325 332 351 332 326 326 336 329 354 74 111 143 151 164 152 148 150 163 165 165 163 171 159 156 155 163 165 173 183 185 195
266 324 263 264 263 269 260 259 274 296 318 319 314 322 321 337 320 322 328 326 325 282 198 174 171 169 157 154 166 165 166 162 155 161 161 159 148 164 171 177 173 188 192 204
261 263 256 268 284 293 298 298 264 309 301 298 291 299 306 319 305 302 334 313 277 252 189 195 188 176 170 179 180 156 160 159 158 157 159 167 160 176 177 168 164 82 33 117